Wind_Speed
6 7 8 9 10 11 13 13 14 15 16 17 18 18 19 19 20 21 22 22 22 22 22 21 21 20 19 19 19 18 18 17 17 17 18 19 20 21 23 24 25 26 27
7 8 9 10 12 13 14 15 16 17 18 19 19 20 21 22 23 23 24 24 24 24 24 24 24 23 22 22 21 21 21 21 20 19 20 21 22 22 23 25 26 28 28
9 10 11 12 13 14 15 17 18 19 20 21 21 22 23 24 25 25 25 26 26 26 26 25 25 25 24 24 24 24 24 24 23 23 23 24 24 25 25 26 27 28 29
10 11 12 14 15 16 17 18 19 20 21 23 23 24 25 26 27 27 28 28 28 28 28 28 27 27 27 27 27 27 27 26 26 26 27 27 27 28 28 28 28 30 31
12 13 14 15 17 17 19 20 21 22 24 24 25 26 27 28 28 29 30 30 30 30 30 30 31 30 30 30 30 29 29 29 29 29 30 30 30 30 31 31 31 31 32
14 15 16 17 18 20 21 23 23 24 25 26 27 28 29 30 30 31 31 32 32 32 33 33 34 34 33 33 32 32 32 32 32 32 33 33 33 33 33 33 33 34 34
15 17 18 19 20 22 23 24 26 26 27 28 29 31 32 32 32 33 33 34 35 35 36 36 36 36 35 34 34 33 33 34 34 34 34 34 35 35 36 36 37 36 35
18 19 20 21 23 24 26 27 28 28 29 30 32 33 34 35 35 36 36 37 37 37 37 38 37 37 36 36 35 35 35 34 34 35 35 35 36 37 37 38 39 39 39
20 21 22 24 25 27 28 29 30 31 32 33 34 35 36 37 38 38 39 39 39 39 39 39 39 38 38 38 37 37 36 36 36 36 37 36 37 38 38 39 39 40 40
22 23 25 27 28 29 30 31 32 33 34 35 36 37 39 39 40 40 40 40 40 40 41 41 41 41 41 40 39 39 38 38 38 38 38 38 38 39 39 39 40 40 41
25 26 28 29 30 32 33 33 35 35 36 37 38 40 41 41 42 42 41 42 42 42 42 42 43 43 43 41 41 40 40 40 40 40 39 38 38 39 39 39 40 41 41
28 29 31 32 33 34 35 36 37 38 38 40 41 42 42 43 43 43 43 44 44 44 45 45 45 45 44 43 42 42 42 42 40 40 40 38 38 39 39 40 40 41 42
31 32 34 34 35 36 37 38 39 40 41 42 43 43 44 44 44 45 45 45 45 46 46 47 47 46 45 44 44 44 43 43 41 40 39 39 38 39 40 41 41 42 42
34 35 35 36 37 38 39 40 41 42 43 44 44 45 45 45 46 46 47 47 47 47 48 49 49 47 46 45 45 43 43 43 43 41 40 39 39 40 42 43 43 44 44
35 36 37 38 39 40 40 41 43 44 44 45 46 46 47 47 48 49 49 50 50 50 50 50 49 48 47 46 45 44 43 44 44 44 42 41 41 42 44 46 45 45 45
37 38 39 39 40 41 42 43 45 45 46 47 47 48 49 50 50 51 52 52 52 52 52 51 50 50 49 48 47 46 46 45 45 45 45 44 43 44 45 46 45 45 45
39 40 41 41 42 43 44 45 46 47 48 48 49 50 51 51 52 53 53 53 53 54 54 53 52 51 50 49 48 48 48 47 46 46 46 45 45 45 45 45 45 44 45
41 42 42 43 44 45 46 47 48 49 49 50 51 52 53 53 54 55 55 55 55 56 56 55 54 53 52 51 50 49 48 47 47 46 46 46 46 45 45 45 45 44 45
42 43 44 45 46 47 49 49 50 51 51 52 53 54 55 56 56 57 58 58 58 57 57 56 55 54 53 52 51 49 48 47 46 46 45 45 45 44 44 45 45 45 45
44 45 46 47 48 49 50 50 52 53 54 55 55 56 57 58 58 58 59 59 59 59 58 57 56 55 54 51 50 48 47 45 45 44 43 43 43 42 42 43 44 44 44
46 47 48 49 50 51 51 52 54 55 56 56 57 58 59 60 60 60 60 60 60 59 58 57 56 55 53 51 49 47 45 43 43 42 41 41 41 40 40 41 42 42 42
47 48 49 50 51 52 54 54 56 57 57 58 59 60 61 61 61 61 61 61 60 59 58 56 55 54 52 50 48 46 44 41 40 39 38 39 39 38 38 38 38 39 39
50 51 52 53 53 54 55 57 59 60 60 60 61 62 62 62 62 62 61 60 60 59 58 56 54 53 50 48 46 44 41 40 39 39 38 37 37 37 37 36 36 35 36
52 53 54 55 56 57 58 59 60 61 62 62 62 62 63 62 62 61 60 60 59 58 56 54 52 50 47 45 43 41 40 39 38 38 36 35 35 34 33 33 33 33 33
55 56 57 58 59 59 60 61 62 62 62 62 62 62 62 62 61 59 58 58 56 54 52 50 47 45 43 42 40 38 37 36 36 35 34 32 32 31 30 30 31 31 31
57 58 59 60 61 61 62 63 63 62 62 62 62 61 60 59 58 56 55 53 51 49 47 45 43 41 40 38 37 35 34 34 34 33 32 31 29 28 27 27 28 29 30
Wind_Direction
294 301 304 309 312 314 318 320 321 323 324 325 326 328 330 330 329 329 329 328 327 325 323 321 319 316 313 310 305 300 295 290 283 276 270 264 262 258 254 251 249 247 245
292 298 302 306 310 312 314 317 319 319 320 320 321 323 325 326 326 327 326 326 324 323 320 317 315 312 309 307 303 297 293 289 284 278 272 268 266 261 258 256 252 249 248
292 297 301 305 307 310 312 314 316 317 317 317 318 319 320 321 323 323 324 323 322 321 319 316 312 309 306 303 300 296 292 288 283 279 275 270 268 265 262 260 256 253 251
290 294 299 303 305 308 310 313 314 314 314 315 316 317 317 318 318 319 319 319 319 318 316 313 310 308 304 301 297 294 291 287 283 280 276 273 270 268 265 262 259 256 253
293 297 299 302 304 307 311 311 310 311 312 313 314 314 315 315 315 315 316 316 315 314 313 312 310 307 304 301 297 292 289 286 283 280 277 274 271 268 266 263 260 257 255
292 296 299 302 304 306 307 309 310 310 311 311 313 313 314 314 314 314 314 313 313 312 312 311 310 307 304 300 295 292 288 284 281 279 277 273 270 267 265 263 260 257 256
294 298 300 301 303 305 306 307 309 309 309 311 312 313 314 313 313 313 313 312 312 311 310 310 309 307 304 299 295 291 289 285 281 279 276 273 269 267 265 263 260 257 255
294 297 299 300 302 304 305 306 307 307 307 309 310 311 312 312 312 311 311 311 311 311 310 309 308 307 304 300 295 292 289 285 281 278 275 272 270 268 266 263 260 258 255
292 295 298 300 302 303 304 305 305 306 307 308 309 310 310 311 311 310 310 310 310 310 309 309 307 306 304 299 296 293 290 286 281 280 277 274 271 268 265 263 260 258 255
290 293 296 299 300 301 302 303 304 305 306 307 308 309 309 310 310 310 309 309 309 309 309 309 307 305 302 299 296 293 291 288 284 281 278 275 272 268 266 264 261 258 255
289 293 295 298 299 300 301 301 303 305 306 307 308 309 309 309 309 309 309 309 309 309 309 309 308 306 303 298 296 294 291 289 286 282 278 275 271 267 266 264 262 259 256
290 292 294 296 298 299 300 301 303 304 305 306 307 308 308 308 308 308 307 308 308 308 308 308 307 306 302 298 296 293 291 289 287 283 277 273 270 267 265 264 262 260 258
289 291 293 295 297 298 299 301 303 304 305 306 306 307 307 307 307 307 307 307 307 307 306 307 306 305 302 298 296 293 291 289 286 283 278 273 269 266 265 264 262 259 257
290 291 292 294 295 297 299 301 302 304 304 305 306 306 307 307 307 307 307 307 306 305 306 306 305 303 300 298 296 293 291 289 286 283 278 274 270 268 266 264 262 259 257
291 291 292 293 295 297 298 300 302 304 305 305 305 306 306 307 306 307 307 307 306 306 305 305 304 302 299 297 295 293 291 288 286 282 278 275 271 269 267 264 262 259 256
290 291 293 294 295 296 298 300 302 303 304 304 305 305 306 306 307 307 307 307 306 306 305 305 303 302 299 296 293 291 290 287 284 281 278 276 273 270 268 265 261 258 255
289 291 293 294 296 297 298 299 301 302 303 303 304 304 305 306 306 307 306 306 306 306 305 304 303 301 299 295 293 291 289 286 282 281 279 277 274 270 267 264 260 257 254
290 291 293 294 296 297 298 299 301 302 302 302 303 303 304 305 306 306 306 305 305 305 304 304 303 302 299 296 293 291 289 285 282 280 280 278 274 270 267 263 259 256 254
292 293 293 294 295 297 298 299 300 301 301 302 302 303 304 305 306 305 305 305 305 305 304 304 304 302 300 297 294 291 288 285 282 280 280 277 273 270 266 261 258 256 254
293 294 294 295 296 297 299 300 300 301 301 302 302 303 303 304 305 305 305 305 305 304 304 303 303 302 300 296 294 291 288 285 281 279 278 274 271 269 266 262 258 256 254
293 295 296 296 296 298 299 300 301 301 301 302 302 303 304 304 305 304 304 304 304 304 303 302 302 301 298 296 295 292 288 285 281 278 276 273 270 269 266 263 258 256 254
293 294 295 297 298 298 299 300 301 301 302 302 303 303 304 304 304 304 304 304 304 303 303 302 301 300 297 295 294 292 288 285 280 277 276 273 270 268 266 262 258 255 253
293 294 295 296 298 299 300 300 300 301 302 302 303 304 304 304 304 304 304 304 303 303 302 301 300 299 297 294 293 291 287 282 279 277 277 274 270 267 265 260 256 253 251
292 293 295 296 297 298 299 300 301 302 302 302 303 303 304 304 304 303 303 303 303 302 301 300 300 299 296 294 292 288 285 281 277 276 276 274 270 266 260 254 251 249 247
292 293 294 295 296 298 299 300 301 301 302 302 303 303 303 303 303 303 303 303 303 302 301 300 299 298 296 294 291 287 284 280 278 277 275 270 267 264 257 252 248 244 244
291 292 294 295 296 298 299 300 300 301 302 302 303 303 303 303 303 302 303 303 303 303 302 300 298 298 296 293 289 286 283 280 276 274 273 269 266 260 256 251 245 242 241
Height
5854 5854 5854 5854 5854 5853 5852 5851 5850 5848 5846 5845 5843 5841 5838 5836 5834 5831 5829 5826 5823 5821 5819 5817 5815 5813 5812 5810 5809 5808 5808 5808 5808 5808 5808 5808 5809 5810 5811 5812 5814 5815 5817
5852 5853 5853 5852 5851 5850 5849 5848 5847 5845 5844 5841 5839 5837 5835 5832 5830 5827 5825 5822 5819 5817 5814 5812 5810 5808 5807 5805 5804 5803 5803 5802 5802 5802 5802 5802 5803 5803 5804 5806 5807 5808 5810
5850 5850 5850 5849 5848 5847 5846 5845 5844 5842 5840 5838 5836 5833 5831 5828 5825 5823 5820 5817 5814 5811 5808 5806 5804 5802 5800 5799 5798 5797 5796 5795 5795 5795 5795 5795 5796 5796 5797 5798 5799 5800 5802
5847 5847 5847 5846 5845 5844 5843 5841 5840 5838 5836 5833 5831 5828 5826 5823 5820 5817 5814 5811 5808 5805 5802 5799 5796 5794 5793 5791 5790 5789 5788 5788 5787 5787 5787 5787 5788 5788 5789 5790 5791 5792 5794
5844 5844 5843 5842 5841 5840 5838 5837 5835 5833 5830 5828 5826 5823 5820 5817 5814 5811 5807 5804 5801 5797 5794 5791 5788 5786 5784 5782 5780 5779 5779 5778 5778 5778 5778 5778 5778 5779 5780 5780 5782 5783 5784
5841 5840 5839 5838 5837 5836 5834 5832 5830 5827 5825 5822 5819 5816 5813 5810 5807 5803 5800 5796 5793 5789 5786 5783 5779 5776 5773 5771 5769 5768 5767 5767 5767 5766 5767 5767 5767 5768 5768 5770 5771 5773 5775
5837 5836 5835 5834 5832 5830 5828 5826 5824 5821 5819 5816 5813 5810 5806 5802 5799 5795 5791 5788 5784 5780 5776 5773 5769 5765 5762 5760 5758 5756 5755 5754 5753 5753 5754 5754 5755 5756 5756 5758 5759 5761 5764
5832 5831 5830 5829 5827 5825 5823 5820 5818 5815 5812 5809 5806 5802 5798 5794 5790 5786 5782 5778 5774 5770 5766 5761 5758 5754 5750 5747 5745 5744 5742 5741 5740 5740 5740 5741 5741 5742 5742 5744 5746 5748 5751
5827 5826 5825 5823 5821 5819 5816 5814 5811 5808 5805 5801 5798 5794 5790 5785 5781 5777 5772 5768 5764 5760 5755 5751 5746 5742 5738 5735 5733 5731 5729 5728 5726 5725 5725 5726 5727 5727 5728 5729 5731 5733 5737
5822 5820 5818 5816 5814 5812 5809 5806 5803 5800 5797 5793 5789 5785 5780 5776 5771 5767 5762 5758 5754 5750 5745 5740 5735 5730 5726 5722 5719 5717 5715 5713 5712 5711 5710 5710 5711 5712 5713 5714 5716 5719 5722
5815 5813 5811 5809 5807 5804 5801 5798 5795 5791 5788 5784 5780 5776 5771 5766 5761 5756 5751 5746 5742 5738 5733 5728 5723 5718 5713 5709 5705 5703 5700 5698 5697 5696 5695 5695 5695 5696 5698 5699 5701 5704 5707
5808 5806 5804 5801 5799 5796 5792 5789 5786 5782 5778 5774 5770 5766 5760 5755 5750 5745 5740 5735 5730 5726 5721 5716 5711 5705 5700 5696 5692 5689 5686 5684 5682 5681 5680 5680 5681 5682 5684 5685 5687 5689 5692
5800 5798 5795 5793 5790 5787 5783 5780 5776 5772 5768 5764 5759 5755 5750 5745 5739 5734 5729 5723 5718 5713 5708 5703 5698 5692 5687 5683 5678 5675 5672 5669 5667 5666 5666 5666 5667 5668 5670 5671 5673 5675 5678
5791 5789 5786 5783 5780 5777 5773 5770 5766 5761 5757 5753 5748 5743 5738 5733 5728 5722 5717 5711 5706 5701 5695 5690 5684 5678 5673 5669 5664 5661 5658 5655 5653 5652 5651 5651 5652 5653 5654 5656 5657 5660 5663
5782 5779 5776 5773 5770 5767 5763 5759 5755 5750 5745 5740 5736 5731 5726 5721 5716 5710 5704 5698 5693 5687 5681 5676 5670 5665 5659 5655 5650 5647 5644 5641 5639 5637 5636 5636 5637 5638 5638 5639 5641 5643 5647
5772 5769 5766 5763 5760 5756 5752 5749 5743 5739 5734 5728 5723 5718 5713 5708 5702 5697 5691 5685 5678 5672 5666 5661 5655 5650 5644 5640 5636 5633 5629 5626 5623 5622 5621 5620 5620 5621 5622 5623 5624 5627 5630
5761 5758 5755 5752 5748 5745 5741 5737 5733 5728 5722 5716 5711 5705 5700 5694 5689 5683 5677 5671 5665 5658 5652 5646 5640 5634 5629 5624 5620 5617 5613 5610 5608 5606 5605 5604 5604 5605 5605 5607 5609 5611 5614
5750 5747 5744 5740 5737 5733 5728 5724 5720 5715 5711 5705 5699 5692 5686 5681 5675 5668 5662 5656 5650 5643 5636 5630 5624 5618 5612 5607 5603 5600 5597 5594 5592 5590 5589 5588 5588 5588 5589 5591 5593 5595 5598
5739 5735 5732 5728 5724 5720 5716 5711 5706 5701 5696 5691 5686 5680 5673 5667 5661 5654 5647 5640 5634 5627 5621 5614 5607 5601 5596 5591 5587 5583 5580 5578 5576 5574 5573 5572 5572 5572 5573 5575 5577 5579 5582
5727 5723 5719 5715 5711 5707 5702 5697 5692 5687 5682 5677 5671 5665 5659 5653 5646 5640 5632 5625 5617 5611 5604 5598 5592 5585 5580 5575 5571 5567 5564 5561 5559 5558 5557 5556 5556 5556 5557 5559 5561 5563 5566
5714 5711 5706 5702 5698 5693 5689 5683 5678 5673 5667 5662 5656 5649 5642 5636 5630 5623 5616 5609 5601 5594 5588 5581 5575 5569 5564 5559 5555 5551 5548 5546 5544 5542 5541 5541 5541 5542 5542 5544 5546 5548 5551
5701 5698 5693 5689 5684 5679 5674 5669 5664 5658 5652 5646 5640 5634 5626 5619 5612 5606 5599 5592 5584 5577 5571 5565 5559 5553 5548 5543 5539 5536 5533 5531 5529 5528 5527 5527 5527 5528 5528 5529 5531 5534 5537
5688 5684 5680 5675 5670 5665 5660 5654 5648 5642 5636 5630 5624 5617 5610 5602 5595 5588 5581 5574 5567 5561 5554 5548 5543 5538 5533 5528 5524 5521 5518 5517 5515 5513 5513 5513 5513 5514 5515 5516 5518 5521 5523
5673 5669 5665 5660 5655 5650 5644 5638 5632 5626 5619 5613 5606 5600 5593 5585 5578 5571 5564 5557 5551 5544 5538 5532 5527 5522 5518 5514 5510 5507 5504 5502 5501 5500 5500 5500 5500 5501 5502 5504 5507 5509 5512
5658 5653 5649 5644 5639 5634 5628 5622 5616 5609 5602 5596 5589 5582 5575 5568 5561 5554 5548 5541 5535 5528 5523 5517 5512 5508 5504 5500 5497 5494 5492 5490 5489 5488 5488 5488 5488 5489 5491 5493 5496 5499 5502
5642 5637 5632 5627 5622 5617 5611 5605 5599 5592 5585 5579 5572 5565 5558 5551 5545 5538 5532 5526 5520 5514 5509 5504 5500 5495 5491 5488 5485 5482 5480 5478 5477 5476 5476 5477 5477 5479 5481 5483 5486 5489 5493